EW2549 Weather Reports


time (UTC)temp
C
wind
direction
speed
KPH
gust
KPH
rain 1hr
cm
rain 24hr
cm
rain mn
cm
humidity
%
barometer
mb
20260902204529 31 98 0.0 11.3 0.00 0.03 0.00 21 1003.2
20260902203028 31 5 0.0 11.3 0.00 0.03 0.00 22 1003.5
20260902201525 31 90 0.0 16.1 0.00 0.03 0.00 23 1003.7
20260902200025 30 81 0.0 8.0 0.00 0.03 0.00 24 1004.1
20260902194534 30 69 1.6 12.9 0.00 0.03 0.00 23 1004.4
20260902193016 30 100 0.0 11.3 0.00 0.03 0.00 24 1004.5
20260902191514 30 91 0.0 16.1 0.00 0.03 0.00 25 1004.8
20260902190011 29 92 0.0 12.9 0.00 0.03 0.00 26 1005.0
20260902184509 30 99 0.0 14.5 0.00 0.03 0.00 26 1005.2
20260902183006 29 88 0.0 6.4 0.00 0.03 0.00 26 1005.3
20260902181503 29 69 1.6 12.9 0.00 0.03 0.00 26 1005.8
20260902180001 28 65 0.0 11.3 0.00 0.03 0.00 28 1005.9
20260902174604 28 59 0.0 11.3 0.00 0.03 0.00 26 1006.3
20260902173058 28 87 0.0 8.0 0.00 0.03 0.00 31 1006.4
20260902171557 27 105 0.0 8.0 0.00 0.03 0.00 30 1006.5
20260902170051 27 99 0.0 12.9 0.00 0.03 0.00 33 1006.6
20260902164552 26 107 0.0 11.3 0.00 0.03 0.00 34 1006.9
20260902163045 26 123 0.0 8.0 0.00 0.03 0.00 37 1006.9
20260902161542 25 128 0.0 6.4 0.00 0.03 0.00 39 1007.0
20260902160037 24 125 0.0 8.0 0.00 0.03 0.00 40 1007.3
20260902154534 23 168 0.0 3.2 0.00 0.03 0.00 44 1007.2
20260902153129 22 105 0.0 4.8 0.00 0.03 0.00 47 1007.3
20260902151529 21 109 0.0 3.2 0.00 0.03 0.00 50 1007.2
20260902150022 20 153 0.0 0.0 0.00 0.03 0.00 52 1007.4
20260902144519 19 154 0.0 0.0 0.00 0.03 0.00 53 1007.3
20260902143016 17 157 0.0 0.0 0.00 0.03 0.00 59 1007.3
20260902141515 16 168 0.0 1.6 0.00 0.03 0.00 62 1007.5
20260902140016 14 192 0.0 0.0 0.00 0.03 0.00 69 1007.5
20260902134524 13 192 0.0 0.0 0.00 0.03 0.00 71 1007.6
20260902133013 12 192 0.0 0.0 0.00 0.03 0.00 73 1007.6
20260902131511 12 256 0.0 8.0 0.00 0.03 0.00 72 1007.0
20260902130010 12 275 0.0 0.0 0.00 0.03 0.00 72 1007.0
20260902124510 12 296 0.0 4.8 0.00 0.03 0.00 71 1006.8
20260902123006 12 302 0.0 0.0 0.00 0.03 0.00 69 1006.8
20260902121506 12 302 0.0 0.0 0.00 0.03 0.00 69 1006.7
20260902120002 13 309 0.0 0.0 0.00 0.03 0.00 68 1006.6
20260902114559 13 309 0.0 0.0 0.00 0.03 0.00 68 1006.3
20260902113100 13 191 0.0 4.8 0.00 0.03 0.00 67 1006.4
20260902111555 13 254 0.0 0.0 0.00 0.03 0.00 66 1006.4
20260902110100 13 254 0.0 0.0 0.00 0.03 0.00 65 1006.4
20260902104616 13 254 0.0 0.0 0.00 0.03 0.00 66 1006.2
20260902103052 13 254 0.0 0.0 0.00 0.03 0.00 66 1006.2
20260902101551 13 254 0.0 0.0 0.00 0.03 0.00 65 1006.2
20260902100108 13 254 0.0 0.0 0.00 0.03 0.00 65 1006.1
20260902094549 13 254 0.0 0.0 0.00 0.03 0.00 64 1006.3
20260902093050 14 254 0.0 0.0 0.00 0.03 0.00 64 1006.3
20260902090042 15 254 0.0 0.0 0.00 0.03 0.00 62 1006.2
20260902084539 15 254 0.0 0.0 0.00 0.05 0.00 63 1006.2
20260902083036 15 254 0.0 0.0 0.00 0.05 0.00 61 1006.3
20260902081549 16 254 0.0 1.6 0.00 0.05 0.00 60 1006.3
20260902080033 16 254 0.0 0.0 0.00 0.05 0.00 57 1006.2
20260902074528 17 254 0.0 0.0 0.00 0.05 0.00 57 1006.4
20260902073024 17 254 0.0 0.0 0.00 0.05 0.00 53 1006.2
20260902071531 18 254 0.0 0.0 0.00 0.05 0.00 50 1006.2
20260902070019 18 254 0.0 0.0 0.00 0.05 0.00 50 1006.1
20260902064516 18 254 0.0 1.6 0.00 0.08 0.00 47 1006.0
20260902063015 18 254 0.0 4.8 0.00 0.08 0.00 46 1005.8
20260902061514 18 249 0.0 0.0 0.00 0.08 0.00 47 1006.0
20260902060012 18 249 0.0 4.8 0.00 0.08 0.00 48 1005.9
20260902054512 18 249 0.0 4.8 0.00 0.08 0.08 49 1005.9
20260902053011 18 250 0.0 0.0 0.00 0.08 0.08 51 1006.0
20260902051510 18 262 0.0 0.0 0.00 0.08 0.08 52 1006.0
20260902050011 18 263 0.0 0.0 0.00 0.08 0.08 52 1006.0
20260902044522 19 263 0.0 0.0 0.00 0.08 0.08 53 1006.2
20260902043008 20 264 0.0 0.0 0.00 0.08 0.08 51 1006.3
20260902041507 20 264 0.0 0.0 0.00 0.08 0.08 49 1006.4
20260902040007 21 264 0.0 0.0 0.00 0.08 0.08 47 1006.4
20260902034506 21 264 0.0 0.0 0.00 0.10 0.08 46 1006.5
20260902033005 21 242 0.0 0.0 0.00 0.10 0.08 46 1006.6
20260902031508 21 303 0.0 0.0 0.00 0.10 0.08 47 1006.5
20260902030005 21 346 0.0 0.0 0.00 0.10 0.08 44 1006.6
20260902024504 22 346 0.0 0.0 0.00 0.30 0.08 45 1006.4
20260902023003 23 346 0.0 0.0 0.00 0.30 0.08 41 1005.9
20260902021503 23 346 0.0 0.0 0.00 0.30 0.08 38 1005.8
20260902020136 23 346 0.0 0.0 0.00 0.30 0.08 39 1005.8
20260902014503 24 278 0.0 0.0 0.00 0.30 0.08 35 1005.7
20260902013001 25 333 0.0 0.0 0.00 0.30 0.08 37 1005.7
20260902011600 25 11 0.0 0.0 0.00 0.30 0.08 36 1005.6
20260902010059 25 265 0.0 0.0 0.00 0.30 0.08 35 1005.5
20260902004559 26 243 0.0 0.0 0.00 0.36 0.08 34 1005.5
20260902003104 27 190 0.0 0.0 0.00 0.36 0.08 35 1005.2
20260902001558 27 190 0.0 0.0 0.00 0.36 0.08 34 1005.3
20260902000057 28 190 0.0 0.0 0.00 0.36 0.08 35 1005.2
20260901234608 28 190 0.0 0.0 0.00 0.36 0.08 36 1005.3
20260901233059 29 190 0.0 0.0 0.00 0.36 0.08 34 1005.4
20260901231557 30 190 0.0 0.0 0.00 0.36 0.08 32 1005.4
20260901230057 30 190 0.0 0.0 0.00 0.36 0.08 26 1005.3
20260901224555 31 217 0.0 0.0 0.00 0.36 0.08 26 1005.4
20260901223100 30 219 0.0 0.0 0.00 0.36 0.08 30 1005.4
20260901221609 29 234 0.0 0.0 0.03 0.36 0.08 33 1005.6
20260901220048 28 71 0.0 0.0 0.03 0.36 0.08 32 1005.6
20260901214547 27 78 0.0 3.2 0.03 0.36 0.08 34 1005.8
20260901213048 28 92 0.0 0.0 0.03 0.36 0.08 43 1006.0
20260901211544 28 68 0.0 0.0 0.00 0.33 0.05 33 1006.2
20260901210043 28 68 0.0 0.0 0.00 0.33 0.05 29 1006.2